BCS473 EGNX-EDDF

Flight info

Callsign BCS473
Flight time N/A
Altitude 35000
Route SAPCO UY53 DTY L10 DVR UL9 KONAN UL607 SPI T180 RASVO RASVO1D
Aircraft A306/H-SDE3FGHIRWY/LB1

Departure

Time 2026-04-27 19:36
Airport East Midlands Airport (EGNX)

Arrival

Time N/A
Airport Frankfurt Main Airport (EDDF)
Time Latitude Longitude Altitude Speed Heading
2026-04-27 18:50 52.82746 -1.35036 309 ft 0 kts 178°
2026-04-27 19:26 52.82769 -1.35038 308 ft 4 kts 178°
2026-04-27 19:26 52.82790 -1.35038 306 ft 4 kts 188°
2026-04-27 19:26 52.82814 -1.35024 305 ft 4 kts 227°
2026-04-27 19:27 52.82825 -1.34988 306 ft 3 kts 268°
2026-04-27 19:27 52.82825 -1.34946 308 ft 3 kts 268°
2026-04-27 19:27 52.82825 -1.34941 308 ft 1 kts 268°
2026-04-27 19:31 52.82825 -1.34942 308 ft 1 kts 268°
2026-04-27 19:31 52.82825 -1.34965 308 ft 5 kts 268°
2026-04-27 19:31 52.82824 -1.35027 307 ft 5 kts 269°
2026-04-27 19:31 52.82823 -1.35098 308 ft 4 kts 268°
2026-04-27 19:32 52.82822 -1.35129 309 ft 4 kts 268°
2026-04-27 19:32 52.82822 -1.35189 309 ft 6 kts 272°
2026-04-27 19:32 52.82832 -1.35245 310 ft 4 kts 302°
2026-04-27 19:32 52.82849 -1.35264 310 ft 2 kts 338°
2026-04-27 19:33 52.82867 -1.35264 312 ft 3 kts
2026-04-27 19:33 52.82883 -1.35247 311 ft 5 kts 41°
2026-04-27 19:33 52.82894 -1.35157 312 ft 6 kts 89°
2026-04-27 19:33 52.82895 -1.35088 309 ft 6 kts 88°
2026-04-27 19:34 52.82896 -1.35018 310 ft 7 kts 88°
2026-04-27 19:34 52.82915 -1.34943 313 ft 6 kts 37°
2026-04-27 19:34 52.82947 -1.34935 312 ft 7 kts 357°
2026-04-27 19:34 52.83007 -1.34940 311 ft 9 kts 357°
2026-04-27 19:35 52.83057 -1.34914 312 ft 7 kts 56°
2026-04-27 19:35 52.83064 -1.34830 309 ft 7 kts 89°
2026-04-27 19:35 52.83064 -1.34820 310 ft 0 kts 89°
2026-04-27 19:35 52.83064 -1.34791 310 ft 12 kts 89°
2026-04-27 19:36 52.83073 -1.34391 308 ft 68 kts 87°
2026-04-27 19:36 52.83093 -1.33248 315 ft 129 kts 88°
2026-04-27 19:36 52.83124 -1.31476 378 ft 175 kts 87°
2026-04-27 19:36 52.83145 -1.29416 1016 ft 181 kts 88°
2026-04-27 19:37 52.83033 -1.27341 1982 ft 181 kts 93°
2026-04-27 19:37 52.82843 -1.25325 2989 ft 178 kts 95°
2026-04-27 19:37 52.82438 -1.23332 3854 ft 188 kts 112°
2026-04-27 19:37 52.81655 -1.21538 4707 ft 201 kts 125°
2026-04-27 19:38 52.80681 -1.19760 5431 ft 216 kts 128°
2026-04-27 19:38 52.79625 -1.17972 6272 ft 225 kts 133°
2026-04-27 19:38 52.78265 -1.16403 6735 ft 257 kts 152°
2026-04-27 19:38 52.76429 -1.15692 7140 ft 285 kts 180°
2026-04-27 19:39 52.74489 -1.16429 8004 ft 289 kts 208°
2026-04-27 19:39 52.72820 -1.18263 8967 ft 289 kts 220°
2026-04-27 19:39 52.71234 -1.20360 9928 ft 293 kts 222°
2026-04-27 19:39 52.69622 -1.22521 10526 ft 308 kts 222°
2026-04-27 19:40 52.67896 -1.24814 10832 ft 329 kts 221°
2026-04-27 19:40 52.66052 -1.27239 11107 ft 349 kts 221°
2026-04-27 19:40 52.64101 -1.29786 11379 ft 367 kts 221°
2026-04-27 19:40 52.62035 -1.32396 11673 ft 383 kts 217°
2026-04-27 19:41 52.59615 -1.34364 12166 ft 395 kts 199°
2026-04-27 19:41 52.56897 -1.35207 12768 ft 401 kts 188°
2026-04-27 19:41 52.54085 -1.35216 13358 ft 408 kts 173°
2026-04-27 19:41 52.51353 -1.34095 13970 ft 413 kts 163°
2026-04-27 19:42 52.48634 -1.32470 14469 ft 419 kts 158°
2026-04-27 19:42 52.45937 -1.30608 15004 ft 423 kts 156°
2026-04-27 19:42 52.43229 -1.28649 15558 ft 427 kts 156°
2026-04-27 19:42 52.40498 -1.26674 16120 ft 431 kts 156°
2026-04-27 19:43 52.37739 -1.24716 16673 ft 434 kts 157°
2026-04-27 19:43 52.34946 -1.22775 17213 ft 438 kts 158°
2026-04-27 19:43 52.32120 -1.20845 17747 ft 442 kts 158°
2026-04-27 19:43 52.29269 -1.18919 18276 ft 446 kts 158°
2026-04-27 19:44 52.26390 -1.16985 18718 ft 449 kts 159°
2026-04-27 19:44 52.23480 -1.15034 19074 ft 455 kts 158°
2026-04-27 19:44 52.20627 -1.12745 19446 ft 460 kts 149°
2026-04-27 19:44 52.18011 -1.09715 19832 ft 463 kts 138°
2026-04-27 19:45 52.15782 -1.05925 20226 ft 464 kts 127°
2026-04-27 19:45 52.13798 -1.01759 20611 ft 466 kts 123°
2026-04-27 19:45 52.11931 -0.97426 21024 ft 469 kts 122°
2026-04-27 19:45 52.10120 -0.93023 21555 ft 467 kts 121°
2026-04-27 19:46 52.08317 -0.88601 21982 ft 470 kts 121°
2026-04-27 19:46 52.06524 -0.84233 22339 ft 473 kts 121°
2026-04-27 19:46 52.04674 -0.79778 22702 ft 476 kts 121°
2026-04-27 19:46 52.02800 -0.75316 23004 ft 480 kts 122°
2026-04-27 19:47 52.00903 -0.70839 23329 ft 483 kts 122°
2026-04-27 19:47 51.98987 -0.66340 23697 ft 486 kts 122°
2026-04-27 19:47 51.97055 -0.61822 24003 ft 488 kts 122°
2026-04-27 19:47 51.95111 -0.57284 24279 ft 491 kts 122°
2026-04-27 19:48 51.93161 -0.52739 24552 ft 493 kts 122°
2026-04-27 19:48 51.91198 -0.48170 24838 ft 495 kts 122°
2026-04-27 19:48 51.89228 -0.43590 25105 ft 497 kts 122°
2026-04-27 19:48 51.87246 -0.38989 25368 ft 499 kts 122°
2026-04-27 19:49 51.85254 -0.34372 25614 ft 501 kts 122°
2026-04-27 19:49 51.83253 -0.29742 25868 ft 503 kts 122°
2026-04-27 19:49 51.81242 -0.25097 26117 ft 505 kts 122°
2026-04-27 19:49 51.79221 -0.20438 26325 ft 508 kts 123°
2026-04-27 19:50 51.77187 -0.15759 26549 ft 510 kts 123°
2026-04-27 19:50 51.75147 -0.11065 26786 ft 511 kts 122°
2026-04-27 19:50 51.73155 -0.06309 26984 ft 513 kts 121°
2026-04-27 19:50 51.71204 -0.01475 27208 ft 514 kts 120°
2026-04-27 19:51 51.69278 0.03375 27577 ft 511 kts 122°
2026-04-27 19:51 51.67367 0.08195 27940 ft 510 kts 122°
2026-04-27 19:51 51.65456 0.12997 28212 ft 511 kts 122°
2026-04-27 19:51 51.63541 0.17816 28485 ft 511 kts 121°
2026-04-27 19:52 51.61640 0.22655 28776 ft 511 kts 121°
2026-04-27 19:52 51.59745 0.27497 29078 ft 511 kts 121°
2026-04-27 19:52 51.57852 0.32332 29388 ft 511 kts 121°
2026-04-27 19:52 51.55955 0.37165 29660 ft 511 kts 121°
2026-04-27 19:53 51.52148 0.46818 30262 ft 511 kts 121°
2026-04-27 19:53 51.50244 0.51630 30613 ft 509 kts 122°
2026-04-27 19:53 51.48358 0.56382 31228 ft 500 kts 123°
2026-04-27 19:54 51.46501 0.61050 31813 ft 492 kts 123°
2026-04-27 19:54 51.44674 0.65632 32322 ft 485 kts 123°
2026-04-27 19:54 51.42863 0.70168 32770 ft 481 kts 123°
2026-04-27 19:54 51.41076 0.74635 32933 ft 485 kts 123°
2026-04-27 19:55 51.37400 0.83801 32938 ft 492 kts 123°
2026-04-27 19:55 51.33699 0.93001 32935 ft 491 kts 123°
2026-04-27 19:56 51.30007 1.02150 32933 ft 488 kts 124°
2026-04-27 19:56 51.25862 1.10619 32931 ft 481 kts 139°
2026-04-27 19:57 51.23259 1.13938 32927 ft 477 kts 150°
2026-04-27 19:57 51.20352 1.16405 32921 ft 471 kts 161°
2026-04-27 19:57 51.17242 1.17923 32935 ft 466 kts 172°
2026-04-27 19:57 51.14047 1.18507 32659 ft 459 kts 183°
2026-04-27 19:58 51.10889 1.18144 32053 ft 452 kts 194°
2026-04-27 19:58 51.07898 1.16814 31423 ft 442 kts 207°
2026-04-27 19:58 51.05217 1.14573 30813 ft 430 kts 219°
2026-04-27 19:58 51.02976 1.11554 30191 ft 418 kts 231°
2026-04-27 19:59 51.01225 1.07937 29462 ft 408 kts 243°
2026-04-27 19:59 51.00087 1.03887 28762 ft 398 kts 257°
2026-04-27 19:59 50.99724 0.99591 28096 ft 391 kts 272°